Simultaneous Nadir Overpasses (SNOs) Predictions

Prediction of SNOs between METOP-C and LANDSAT-8 Satellite Orbit:

Table of predicted SNOs for the next 14.0 days since TLE Epoch: 5/20/2023
Index Date (METOP-C) Time (METOP-C) Lat,Lon (METOP-C) SZA (METOP-C ) Date (LANDSAT-8) Time (LANDSAT-8) Lat,Lon (LANDSAT-8) SZA (LANDSAT-8 ) Distance(km) Time Diff (sec)
1 05/20/2023 05:32:49 -81.17, -42.67 116.47 05/20/2023 05:33:14 -81.17, -42.66 116.46 0.24 25
2 05/20/2023 06:23:28 81.20, 125.64 63.66 05/20/2023 06:22:39 81.20, 125.46 63.61 3.06 49
3 05/23/2023 01:07:08 -81.17, 23.83 117.03 05/23/2023 01:07:29 -81.18, 23.98 116.99 2.87 21
4 05/23/2023 01:57:48 81.19,-168.31 63.04 05/23/2023 01:56:55 81.19,-168.30 63.01 0.40 53
5 05/25/2023 20:41:27 -81.18, 90.64 117.50 05/25/2023 20:41:45 -81.18, 90.45 117.51 3.19 18
6 05/25/2023 21:32:08 81.19,-101.95 62.51 05/25/2023 21:31:11 81.19,-101.85 62.49 1.61 57
7 05/28/2023 16:15:48 -81.17, 156.64 118.04 05/28/2023 16:16:01 -81.17, 156.75 118.02 2.04 13
8 05/28/2023 17:06:27 81.20, -35.27 62.06 05/28/2023 17:05:26 81.20, -35.21 62.04 1.05 61
9 05/31/2023 11:50:06 -81.18,-136.68 118.43 05/31/2023 11:50:15 -81.18,-136.75 118.44 1.32 9



Historial Predications of SNOs between METOP-C and LANDSAT-8
